Location: *
(50.3440°N, 18.6237°E)
Time: 17:57:25
(UTC+00:00)

Cosmos 389 Rocket - Pass Details

Date: 30 November 2020
Orbit: 442 x 473 km, 81.1° (Epoch: 17 January)

Event Time Altitude Azimuth Distance (km) Brightness Sun altitude
Rises 16:36:26 0° 218° (SW) 2,432 7.0 -16.9°
Reaches altitude 10° 16:38:43 10° 231° (SW) 1,564 6.1 -17.3°
Maximum altitude 16:41:39 26° 291° (WNW) 910 4.5 -17.7°
Drops below altitude 10° 16:44:36 10° 350° (N) 1,575 5.1 -18.2°
Enters shadow 16:45:46 - 358° (N) 2,010 5.6 -18.4°
